• In Russia
  • List of Countries
  • For 7 days
  • Water Temperature
  • Satellite Maps
  • Weather Map
  • Weather Widgets
  • user-avatar
    Login

    Hourly Weather Ischgl

    Today, 28 February, Tuesday

    Time Temperature Precipitation Wind Pressure Humidity
    00:00 -9°C° 0 mm 3 mps 564 mmHg 93%
    01:00 -10°C° 0 mm 4 mps 563 mmHg 94%
    02:00 -10°C° 0.1 mm 4 mps 563 mmHg 94%
    03:00 -9°C° 0.1 mm 4 mps 563 mmHg 94%
    04:00 -8°C° 0.1 mm 3 mps 562 mmHg 94%
    05:00 -8°C° 0.2 mm 3 mps 562 mmHg 94%
    06:00 -8°C° 0.2 mm 3 mps 562 mmHg 95%
    07:00 -8°C° 0.2 mm 3 mps 562 mmHg 95%
    08:00 -6°C° 0.7 mm 2 mps 562 mmHg 96%
    09:00 -6°C° 0.7 mm 2 mps 562 mmHg 97%
    10:00 -5°C° 0.7 mm 2 mps 563 mmHg 97%
    11:00 -5°C° 1.2 mm 2 mps 562 mmHg 97%
    12:00 -5°C° 1.2 mm 2 mps 562 mmHg 97%
    13:00 -5°C° 1.2 mm 2 mps 561 mmHg 98%
    14:00 -5°C° 1.1 mm 2 mps 560 mmHg 98%
    15:00 -5°C° 1.1 mm 2 mps 560 mmHg 98%
    16:00 -5°C° 1.1 mm 2 mps 559 mmHg 98%
    17:00 -6°C° 1.1 mm 3 mps 559 mmHg 98%
    18:00 -7°C° 1.1 mm 3 mps 559 mmHg 98%
    19:00 -8°C° 1.1 mm 3 mps 558 mmHg 98%
    20:00 -8°C° 1.9 mm 3 mps 559 mmHg 98%
    21:00 -9°C° 1.9 mm 3 mps 559 mmHg 98%
    22:00 -8°C° 1.9 mm 2 mps 559 mmHg 98%
    23:00 -9°C° 1.5 mm 2 mps 559 mmHg 98%

    Tomorrow, 1 March, Wednesday

    Time Temperature Precipitation Wind Pressure Humidity
    00:00 -10°C° 1.5 mm 2 mps 559 mmHg 98%
    01:00 -12°C° 1.5 mm 2 mps 559 mmHg 98%
    02:00 -13°C° 0.4 mm 2 mps 559 mmHg 98%
    03:00 -13°C° 0.4 mm 2 mps 560 mmHg 98%
    04:00 -13°C° 0.4 mm 2 mps 560 mmHg 98%
    05:00 -14°C° 0.1 mm 2 mps 560 mmHg 97%
    06:00 -15°C° 0.1 mm 2 mps 560 mmHg 97%
    07:00 -15°C° 0.1 mm 2 mps 560 mmHg 96%
    08:00 -14°C° 0.1 mm 2 mps 561 mmHg 96%
    09:00 -12°C° 0.1 mm 2 mps 563 mmHg 95%
    10:00 -9°C° 0.1 mm 2 mps 564 mmHg 95%
    11:00 -9°C° 0.1 mm 2 mps 565 mmHg 94%
    12:00 -8°C° 0.1 mm 2 mps 565 mmHg 92%
    13:00 -8°C° 0.1 mm 2 mps 566 mmHg 91%
    14:00 -7°C° 0.1 mm 2 mps 566 mmHg 92%
    15:00 -7°C° 0.1 mm 2 mps 566 mmHg 93%
    16:00 -7°C° 0.1 mm 2 mps 566 mmHg 94%
    17:00 -10°C° 0 mm 2 mps 565 mmHg 94%
    18:00 -13°C° 0 mm 2 mps 564 mmHg 94%
    19:00 -16°C° 0 mm 2 mps 563 mmHg 94%
    20:00 -15°C° 0 mm 2 mps 564 mmHg 94%
    21:00 -14°C° 0 mm 2 mps 565 mmHg 93%
    22:00 -13°C° 0 mm 2 mps 565 mmHg 93%
    23:00 -13°C° 0.1 mm 3 mps 566 mmHg 93%

    Day after tomorrow, 2 March, Thursday

    Time Temperature Precipitation Wind Pressure Humidity
    00:00 -12°C° 0.1 mm 3 mps 566 mmHg 93%
    01:00 -12°C° 0.1 mm 3 mps 566 mmHg 93%
    02:00 -12°C° 0 mm 3 mps 566 mmHg 93%
    03:00 -12°C° 0 mm 3 mps 566 mmHg 93%
    04:00 -10°C° 0 mm 2 mps 566 mmHg 93%
    05:00 -10°C° 0.1 mm 2 mps 566 mmHg 93%
    06:00 -10°C° 0.1 mm 2 mps 566 mmHg 93%
    07:00 -10°C° 0.1 mm 2 mps 566 mmHg 93%
    08:00 -8°C° 0.3 mm 2 mps 567 mmHg 94%
    09:00 -6°C° 0.3 mm 2 mps 568 mmHg 96%
    10:00 -3°C° 0.3 mm 1 mps 570 mmHg 97%
    11:00 -2°C° 0.3 mm 1 mps 570 mmHg 97%
    12:00 -4°C° 0.3 mm 2 mps 571 mmHg 98%
    13:00 -4°C° 0.3 mm 2 mps 571 mmHg 98%
    14:00 -4°C° 0.3 mm 2 mps 571 mmHg 98%
    15:00 -4°C° 0.3 mm 2 mps 571 mmHg 98%
    16:00 -4°C° 0.3 mm 2 mps 571 mmHg 98%
    17:00 -7°C° 0 mm 1 mps 569 mmHg 97%
    18:00 -10°C° 0 mm 1 mps 568 mmHg 97%
    19:00 -13°C° 0 mm 1 mps 566 mmHg 96%
    20:00 -13°C° 0 mm 1 mps 566 mmHg 93%
    21:00 -14°C° 0 mm 2 mps 567 mmHg 90%
    22:00 -14°C° 0 mm 2 mps 567 mmHg 88%
    23:00 -13°C° 0 mm 2 mps 568 mmHg 90%

    3 March, Friday

    Time Temperature Precipitation Wind Pressure Humidity
    00:00 -12°C° 0 mm 2 mps 568 mmHg 93%
    01:00 -10°C° 0 mm 2 mps 569 mmHg 95%
    02:00 -9°C° 0 mm 2 mps 568 mmHg 95%
    03:00 -9°C° 0 mm 2 mps 568 mmHg 95%
    04:00 -9°C° 0 mm 2 mps 568 mmHg 96%
    05:00 -9°C° 0 mm 2 mps 568 mmHg 95%
    06:00 -9°C° 0 mm 2 mps 568 mmHg 95%
    07:00 -9°C° 0 mm 2 mps 568 mmHg 95%
    08:00 -8°C° 0 mm 3 mps 568 mmHg 96%
    09:00 -6°C° 0 mm 3 mps 569 mmHg 97%
    10:00 -5°C° 0 mm 3 mps 569 mmHg 98%
    11:00 -4°C° 0.1 mm 3 mps 569 mmHg 98%
    12:00 -4°C° 0.1 mm 3 mps 569 mmHg 98%
    13:00 -4°C° 0.1 mm 3 mps 569 mmHg 98%
    14:00 -4°C° 0.1 mm 3 mps 568 mmHg 98%
    15:00 -4°C° 0.1 mm 3 mps 568 mmHg 98%
    16:00 -4°C° 0.1 mm 3 mps 567 mmHg 98%
    17:00 -4°C° 0.1 mm 3 mps 567 mmHg 97%
    18:00 -5°C° 0.1 mm 3 mps 566 mmHg 97%
    19:00 -6°C° 0.1 mm 3 mps 566 mmHg 96%
    20:00 -6°C° 0.1 mm 3 mps 565 mmHg 96%
    21:00 -6°C° 0.1 mm 3 mps 565 mmHg 96%
    22:00 -6°C° 0.1 mm 3 mps 565 mmHg 95%
    23:00 -6°C° 0.2 mm 3 mps 565 mmHg 95%

    4 March, Saturday

    Time Temperature Precipitation Wind Pressure Humidity
    00:00 -7°C° 0.2 mm 3 mps 564 mmHg 95%
    01:00 -8°C° 0.2 mm 4 mps 564 mmHg 95%
    02:00 -7°C° 0.1 mm 3 mps 563 mmHg 95%
    03:00 -7°C° 0.1 mm 3 mps 563 mmHg 95%
    04:00 -7°C° 0.1 mm 3 mps 563 mmHg 95%
    05:00 -7°C° 0.2 mm 3 mps 562 mmHg 95%
    06:00 -8°C° 0.2 mm 3 mps 562 mmHg 95%
    07:00 -8°C° 0.2 mm 3 mps 562 mmHg 95%
    08:00 -7°C° 0.9 mm 3 mps 563 mmHg 96%
    09:00 -5°C° 0.9 mm 2 mps 563 mmHg 96%
    10:00 -4°C° 0.9 mm 2 mps 564 mmHg 96%
    11:00 -4°C° 0.9 mm 2 mps 564 mmHg 97%
    12:00 -4°C° 0.9 mm 2 mps 564 mmHg 97%
    13:00 -4°C° 0.9 mm 2 mps 564 mmHg 98%
    14:00 -3°C° 0.3 mm 2 mps 564 mmHg 98%
    15:00 -3°C° 0.3 mm 2 mps 564 mmHg 97%
    16:00 -3°C° 0.3 mm 2 mps 565 mmHg 97%
    17:00 -4°C° 0.2 mm 2 mps 564 mmHg 97%
    18:00 -5°C° 0.2 mm 2 mps 564 mmHg 97%
    19:00 -6°C° 0.2 mm 2 mps 564 mmHg 97%
    20:00 -7°C° 0.2 mm 2 mps 564 mmHg 97%
    21:00 -7°C° 0.2 mm 2 mps 564 mmHg 97%
    22:00 -7°C° 0.2 mm 2 mps 565 mmHg 96%
    23:00 -7°C° 0.1 mm 2 mps 565 mmHg 96%

    5 March, Sunday

    Time Temperature Precipitation Wind Pressure Humidity
    00:00 -8°C° 0.1 mm 2 mps 564 mmHg 96%
    01:00 -8°C° 0.1 mm 2 mps 564 mmHg 96%
    02:00 -8°C° 0.2 mm 2 mps 564 mmHg 96%
    03:00 -9°C° 0.2 mm 2 mps 564 mmHg 96%
    04:00 -9°C° 0.2 mm 2 mps 564 mmHg 96%
    05:00 -9°C° 0.3 mm 2 mps 564 mmHg 96%
    06:00 -9°C° 0.3 mm 2 mps 564 mmHg 96%
    07:00 -9°C° 0.3 mm 2 mps 565 mmHg 96%
    08:00 -7°C° 0.5 mm 1 mps 565 mmHg 96%
    09:00 -6°C° 0.5 mm 1 mps 566 mmHg 96%
    10:00 -4°C° 0.5 mm 1 mps 567 mmHg 95%
    11:00 -4°C° 0.4 mm 1 mps 567 mmHg 95%
    12:00 -3°C° 0.4 mm 1 mps 567 mmHg 96%
    13:00 -2°C° 0.4 mm 1 mps 567 mmHg 96%
    14:00 -2°C° 0.3 mm 1 mps 567 mmHg 96%
    15:00 -2°C° 0.3 mm 1 mps 567 mmHg 96%
    16:00 -2°C° 0.3 mm 1 mps 567 mmHg 96%
    17:00 -4°C° 0.1 mm 1 mps 566 mmHg 96%
    18:00 -7°C° 0.1 mm 1 mps 565 mmHg 97%
    19:00 -9°C° 0.1 mm 1 mps 564 mmHg 98%
    20:00 -9°C° 0.1 mm 1 mps 564 mmHg 97%
    21:00 -9°C° 0.1 mm 1 mps 564 mmHg 97%
    22:00 -9°C° 0.1 mm 1 mps 564 mmHg 96%
    23:00 -9°C° 0.1 mm 1 mps 564 mmHg 96%
    Show more